{"data":{"norad_id":60194,"intl_designator":"2024-124M","name":"STARLINK-11152 [DTC]","alt_names":[],"object_type":"PAYLOAD","status":"ACTIVE","operator":null,"country":"US","launch_date":"2024-07-03","launch_site_code":"AFETR","launch_vehicle":null,"mission":null,"orbit_class":"UNKNOWN","rcs_meters":null,"size_class":null,"mass_kg":null,"dimensions":null,"purposes":["comms"],"wikipedia_slug":null,"has_3d_model":false,"image_url":null,"decayed_at":null,"tle_current":{"epoch":"2026-09-20T06:18:53.193888Z","epoch_age_seconds":202037,"freshness":"STALE","line1":"1 60194U 24124M   26263.26311567 -.00000111  00000+0  39382-5 0  9996","line2":"2 60194  53.1585 282.1048 0001059  60.4829 299.6294 15.69710639128287","mean_motion":15.69710639,"eccentricity":0.0001059,"inclination_deg":53.1585,"raan_deg":282.1048,"arg_perigee_deg":60.4829,"mean_anomaly_deg":299.6294,"bstar":3.9382e-6,"rev_number":12828,"period_min":91.736652872364,"perigee_km":359.01138226947,"apogee_km":360.43846142452,"semimajor_km":6737.861921847,"source":"CELESTRAK","updated_at":"2026-09-22T09:00:49.183922Z"}}}